Location: *
(48.4333°N, 5.0333°W)
Time: 01:34:52
(UTC+00:00)

LilacSat-2 - Pass Details

Date: 26 October 2021
Orbit: 511 x 532 km, 97.5° (Epoch: 01 December)

Event Time Altitude Azimuth Distance (km) Brightness Sun altitude
Rises 17:58:56 0° 194° (SSW) 2,636 ? -8.6°
Reaches altitude 10° 18:01:17 10° 207° (SSW) 1,750 ? -9.0°
Maximum altitude 18:04:29 26° 265° (W) 1,050 ? -9.5°
Drops below altitude 10° 18:07:42 10° 323° (NW) 1,754 ? -10.1°
Sets 18:10:04 0° 337° (NNW) 2,643 ? -10.5°
